Location: Bullfrog
(37.5121°N, 110.7330°W)
Time: 15:34:27
(UTC-06:00)

N. Korean satellite - Pass Details

Date: 06 October 2021
Orbit: 450 x 495 km, 97.3° (Epoch: 23 October)

Event Time Altitude Azimuth Distance (km) Brightness Sun altitude
Rises 06:30:03 0° 13° (NNE) 2,564 10.4 -11.3°
Reaches altitude 10° 06:32:08 10° 16° (NNE) 1,684 9.5 -10.9°
Maximum altitude 06:35:45 72° 100° (E) 522 6.9 -10.2°
Drops below altitude 10° 06:39:22 10° 186° (S) 1,683 9.2 -9.5°
Sets 06:41:27 0° 188° (S) 2,562 10.1 -9.1°
